Fryeburg, ME

11:42 PM EDT on May 20, 2018 (GMT -0400)
Eastern Slopes Regional

Weather History for KIZG - April, 2014

Change the Weather History Date:

Wednesday, April 30, 2014

  Actual Average Record
Temperature  
Mean Temperature 40 °F -  
Max Temperature 44 °F 62 °F 87 °F (2004)
Min Temperature 37 °F 34 °F 25 °F (2006)
Degree Days  
Heating Degree Days 24    
Moisture  
Dew Point 34 °F    
Average Humidity 80    
Maximum Humidity 93    
Minimum Humidity 68    
Precipitation  
Precipitation 0.23 in - - ()
Sea Level Pressure  
Sea Level Pressure 30.45 in    
Wind  
Wind Speed 3 mph (East)    
Max Wind Speed 8 mph    
Max Gust Speed -    
Visibility 9 miles    
Events Rain    
Averages and records for this station are not official NWS values.
T = Trace of Precipitation, MM = Missing Value Source: NWS Daily Summary

Daily Weather History Graph

Daily Weather History Graph

Search for Another Location

Airport or City:

Astronomy

Apr. 30, 2014 Rise Set
Actual Time 5:36 AM EDT 7:45 PM EDT
Civil Twilight 5:05 AM EDT 8:17 PM EDT
Nautical Twilight 4:26 AM EDT 8:56 PM EDT
Astronomical Twilight 3:43 AM EDT 9:39 PM EDT
Moon 6:34 AM EDT (4/30) 9:23 PM EDT (4/30)
Length of Visible Light 15h 12m
Length of Day
14h 08m
New Moon, 2% of the Moon is Illuminated
Apr 30
New Moon
May 6
First Quarter
May 14
Full
May 21
Last Quarter
May 28
New

Hourly Weather History & Observations

Time (EDT) Temp. Windchill Dew Point Humidity Pressure Visibility Wind Dir Wind Speed Gust Speed Precip Events Conditions
12:54 AM 39.9 °F - 33.1 °F 77% 30.57 in 10.0 mi Calm Calm - N/A   Overcast
1:54 AM 39.9 °F - 33.1 °F 77% 30.58 in 10.0 mi Calm Calm - N/A   Overcast
2:54 AM 39.9 °F 36.7 °F 33.1 °F 77% 30.57 in 10.0 mi East 4.6 mph - N/A   Overcast
3:38 AM 39.9 °F 35.1 °F 32.0 °F 73% 30.55 in 10.0 mi ESE 6.9 mph - N/A   Overcast
3:54 AM 39.9 °F 36.7 °F 32.0 °F 73% 30.56 in 10.0 mi ENE 4.6 mph - N/A   Overcast
4:54 AM 39.0 °F 35.7 °F 33.1 °F 79% 30.56 in 10.0 mi East 4.6 mph - 0.00 in Rain Light Rain
5:54 AM 39.0 °F 36.8 °F 34.0 °F 82% 30.58 in 10.0 mi ENE 3.5 mph - 0.00 in   Overcast
6:54 AM 39.0 °F 35.7 °F 34.0 °F 82% 30.57 in 10.0 mi East 4.6 mph - N/A   Overcast
7:39 AM 39.9 °F 36.7 °F 34.0 °F 79% 30.55 in 10.0 mi East 4.6 mph - N/A   Overcast
7:54 AM 39.9 °F 36.7 °F 34.0 °F 79% 30.56 in 10.0 mi ESE 4.6 mph - N/A   Overcast
8:54 AM 39.9 °F 37.8 °F 34.0 °F 79% 30.55 in 10.0 mi Variable 3.5 mph - N/A   Overcast
9:54 AM 41.0 °F 38.0 °F 34.0 °F 76% 30.54 in 10.0 mi SSE 4.6 mph - N/A   Overcast
11:05 AM 43.0 °F - 34.0 °F 71% 30.51 in 10.0 mi Calm Calm - N/A   Overcast
11:54 AM 44.1 °F 42.5 °F 34.0 °F 68% 30.49 in 10.0 mi Variable 3.5 mph - N/A   Overcast
12:54 PM 44.1 °F 39.5 °F 35.1 °F 71% 30.48 in 10.0 mi SE 8.1 mph - N/A   Overcast
1:54 PM 43.0 °F 38.8 °F 35.1 °F 74% 30.48 in 10.0 mi SE 6.9 mph - N/A   Overcast
2:54 PM 43.0 °F 38.2 °F 35.1 °F 74% 30.45 in 10.0 mi SE 8.1 mph - N/A   Overcast
3:54 PM 43.0 °F 40.3 °F 35.1 °F 74% 30.43 in 10.0 mi SE 4.6 mph - N/A   Overcast
5:54 PM 43.0 °F 39.5 °F 33.1 °F 68% 30.40 in 10.0 mi SE 5.8 mph - N/A   Overcast
6:54 PM 41.0 °F 39.0 °F 33.1 °F 73% 30.39 in 10.0 mi Variable 3.5 mph - N/A   Overcast
7:54 PM 39.0 °F 36.8 °F 35.1 °F 86% 30.37 in 9.0 mi SSE 3.5 mph - 0.02 in Rain Light Rain
8:54 PM 39.0 °F - 36.0 °F 89% 30.37 in 9.0 mi Calm Calm - 0.04 in Rain Light Rain
9:54 PM 37.9 °F 35.5 °F 36.0 °F 93% 30.35 in 6.0 mi SE 3.5 mph - 0.05 in Rain Rain
10:34 PM 37.9 °F - 36.0 °F 93% 30.31 in 7.0 mi Calm Calm - 0.03 in Rain Light Rain
10:43 PM 37.9 °F - 36.0 °F 93% 30.30 in 10.0 mi Calm Calm - 0.03 in Rain Light Rain
10:54 PM 37.9 °F 35.5 °F 36.0 °F 93% 30.31 in 10.0 mi NE 3.5 mph - 0.04 in Rain Light Rain
11:35 PM 37.9 °F 35.5 °F 36.0 °F 93% 30.27 in 3.0 mi NE 3.5 mph - 0.04 in Rain Rain
11:41 PM 37.9 °F 35.5 °F 36.0 °F 93% 30.26 in 3.0 mi NE 3.5 mph - 0.06 in Rain Rain
11:54 PM 37.9 °F 34.4 °F 36.0 °F 93% 30.27 in 4.0 mi NE 4.6 mph - 0.08 in Rain Rain